#timestamp,LO_Frequency,Hit,StdDev 
1553904015.8,286047000.9,N
1553904035.6,286047000.8,N
1553904055.5,286046999.9,N
1553904075.3,286047001.3,N
1553904095.1,286047002.7,N
1553904115.9,286047002.1,N
1553904135.7,286047007.4,Y
1553904155.5,286047007.6,P
1553904175.4,286047008.0,N
1553904195.2,286047006.3,N
1553904215.1,286047007.8,N
1553904216.0,286047007.8,N
1553904235.8,286047008.8,Y
1553904255.6,286047000.0,P
1553904275.5,286046998.3,N
1553904295.3,286047011.9,P
1553904315.2,286046999.1,N
1553904335.9,286046999.7,N
1553904355.7,286047001.6,N
1553904375.6,286047003.7,N
1553904395.4,286046999.8,N
1553904415.2,286047000.8,N
1553904435.1,286047002.8,N
1553904436.0,286047002.8,N
1553904455.8,286047000.2,N
1553904475.7,286047002.6,N
1553904495.5,286046998.4,N
1553904515.3,286046997.8,N
1553904535.2,286046996.8,N
1553904555.0,286046995.5,N
1553904555.9,286046995.5,N
1553904575.8,286046993.3,N
1553904595.6,286046996.1,N
1553904615.4,286046995.7,N
1553904635.3,286046995.6,N
1553904655.1,286046997.5,N
1553904675.8,286046997.3,N
1553904695.7,286046997.6,N
1553904715.5,286046997.6,N
1553904735.4,286046997.2,N
1553904755.2,286046995.3,N
1553904775.0,286046996.5,N
1553904775.9,286046996.5,N
1553904795.8,286046999.1,N
1553904815.6,286046997.3,N
1553904835.4,286046997.6,N
1553904855.3,286046998.0,N
1553904875.1,286046997.6,N
1553904895.9,286046999.2,N
1553904915.7,286046997.1,N
1553904935.5,286046996.6,N
1553904955.4,286046996.5,N
1553904975.2,286047002.3,N
1553904995.1,286046999.8,N
1553904996.0,286046999.8,N
1553905015.8,286047000.7,N
1553905035.6,286047002.4,N
1553905055.5,286047003.8,N
1553905075.3,286047002.1,N
1553905095.1,286047004.4,N
1553905115.9,286047003.2,N
1553905135.7,286047002.3,N
1553905155.6,286047006.3,N
1553905175.4,286047005.1,N
1553905195.2,286047004.9,N
1553905215.1,286047005.4,N
1553905216.0,286047005.4,N
1553905235.8,286047005.1,N
1553905255.7,286047004.7,N
1553905275.5,286047004.6,N
1553905295.3,286047005.7,N
1553905315.2,286047006.0,N
1553905335.0,286047003.4,N
1553905335.9,286047003.4,N
1553905355.8,286047005.5,N
1553905375.6,286047003.8,N
1553905395.4,286047004.3,N
1553905415.3,286047004.1,N
1553905435.1,286047003.7,N
1553905455.8,286047004.1,N
1553905475.7,286047003.0,N
1553905495.5,286047004.3,N
1553905515.4,286046999.8,N
1553905535.2,286047001.6,N
1553905555.0,286047001.9,N
1553905555.9,286047001.9,N
1553905575.8,286047002.2,N
1553905595.6,286047002.0,N
1553905615.5,286046998.5,N
1553905635.3,286046998.5,N
1553905655.1,286046999.4,N
1553905675.9,286046998.9,N
1553905695.7,286047000.2,N
1553905715.5,286047001.6,N
1553905735.4,286047004.4,N
1553905755.2,286047003.2,N
1553905775.1,286047005.2,N
1553905776.0,286047005.2,N
1553905795.8,286047003.6,N
1553905815.6,286047003.2,N
1553905835.5,286047005.6,N
1553905855.3,286047003.8,N
1553905875.2,286047004.0,N
1553905895.9,286047005.5,N
1553905915.7,286047007.0,Y
1553905935.6,286047005.9,P
1553905955.4,286047008.6,P
1553905975.2,286047012.4,P
1553905995.1,286047009.4,N
1553905996.0,286047009.4,N
1553906015.8,286047013.9,Y
1553906035.7,286047005.5,P
1553906055.5,286047005.9,P
1553906075.3,286047002.2,N
1553906095.2,286047001.8,N
1553906115.0,286047005.9,N
1553906115.9,286047005.9,N
1553906135.8,286047001.4,N
1553906155.6,286047003.7,N
1553906175.4,286047003.5,N
1553906195.3,286047005.5,N
1553906215.1,286047006.1,Y
1553906235.9,286047002.6,P
1553906255.7,286047002.6,N
1553906275.5,286047002.6,N
1553906295.4,286047000.1,N
1553906315.2,286047002.7,N
1553906335.1,286047002.8,N
1553906336.0,286047002.8,N
1553906355.8,286047000.3,N
1553906375.6,286047002.7,N
1553906395.5,286046998.5,N
1553906415.3,286046998.6,N
1553906435.1,286046997.6,N
1553906455.9,286046993.8,Y
1553906475.7,286046993.8,P
1553906495.6,286046992.2,N
1553906515.4,286046994.1,N
1553906535.2,286046996.0,N
1553906555.1,286046994.2,N
1553906556.0,286046994.2,N
1553906575.8,286046997.9,N
1553906595.7,286046997.4,N
1553906615.5,286046996.2,N
1553906635.3,286046997.9,N
1553906655.2,286046995.8,N
1553906675.0,286046997.3,N
1553906675.9,286046997.3,N
1553906695.7,286046997.4,N
1553906715.6,286046995.5,N
1553906735.4,286046997.3,N
1553906755.3,286046997.3,N
1553906775.1,286046996.1,N
1553906776.0,286046996.1,N
1553906795.8,286046994.9,N
1553906815.7,286046997.4,N
1553906835.5,286046997.8,N
1553906855.3,286046995.8,N
1553906875.2,286046997.1,N
1553906895.0,286046997.0,N
1553906895.9,286046997.0,N
1553906915.8,286046997.6,N
1553906935.6,286046995.5,N
1553906955.4,286046996.3,N
1553906975.3,286046996.0,N
1553906995.1,286046995.1,Y
1553907015.9,286047000.8,P
1553907035.7,286046998.6,N
1553907055.5,286046998.7,N
1553907075.4,286046999.0,N
1553907095.2,286047011.9,Y
1553907115.0,286046997.2,P
1553907116.0,286046997.2,P
1553907135.8,286046997.9,P
1553907155.6,286046998.0,Y
1553907175.5,286047000.2,P
1553907195.3,286047000.4,N
1553907215.1,286046998.1,N
1553907235.9,286046998.2,N
1553907255.7,286046999.9,N
1553907275.6,286047003.3,N
1553907295.4,286047004.9,N
1553907315.2,286047003.3,N
1553907335.1,286047004.6,N
1553907336.0,286047004.6,N
1553907355.8,286047008.9,Y
1553907375.7,286047006.5,P
1553907395.5,286047007.3,N
1553907415.3,286047007.3,N
1553907435.2,286047007.5,Y
1553907455.0,286047000.3,P
1553907455.9,286047000.3,N
1553907475.7,286047001.8,N
1553907495.6,286047000.7,N
1553907515.4,286047000.4,N
1553907535.3,286046997.1,N
1553907555.1,286046998.1,N
1553907556.0,286046998.1,N
1553907575.8,286047000.0,N
1553907595.7,286046999.1,N
